Theta_e
334 335 341 348 344 344 344 346 354 353 353 353 351 351 352 348 348 351 346 347 347 339
332 334 338 348 349 346 350 342 345 346 346 346 345 345 348 345 346 347 348 349 349 342
332 334 339 342 343 343 341 340 330 337 340 339 339 340 342 340 341 342 342 341 346 348
330 330 334 336 338 335 334 331 329 329 328 329 330 333 336 337 334 335 338 340 339 340
326 326 326 327 329 331 332 331 329 328 328 327 327 330 331 331 329 330 332 334 336 335
323 326 327 328 329 328 329 331 329 328 326 326 326 327 329 327 326 327 329 330 331 332
316 319 323 327 327 328 327 326 328 328 326 325 326 326 326 326 327 326 326 328 328 328
315 317 318 321 324 325 323 323 324 326 327 326 325 323 325 326 327 327 327 327 326 329
313 314 317 320 320 322 320 322 322 323 325 328 325 311 310 321 327 327 327 327 327 327
310 311 313 316 318 320 322 323 323 323 324 329 334 306 305 309 330 328 328 328 328 326
309 309 310 312 315 318 320 322 323 324 326 327 329 307 302 305 329 332 332 330 329 329
308 308 308 309 312 315 316 319 321 322 324 326 326 305 302 306 325 327 329 327 329 328
306 307 307 309 310 312 314 315 316 318 323 317 325 307 300 307 323 325 324 330 330 309
306 307 308 308 310 310 311 313 315 316 321 322 321 322 300 299 323 321 322 322 325 326
Wind_Speed
16 14 15 16 14 14 13 12 12 15 14 14 13 12 11 10 10 11 12 14 12 11
13 16 15 15 13 13 11 10 13 14 12 11 11 11 11 11 12 12 11 11 12 12
8 10 9 9 14 14 12 10 6 8 7 10 11 11 11 11 12 13 11 12 13 12
6 7 7 11 13 10 9 10 10 12 10 9 11 11 11 12 13 14 13 13 12 14
8 8 8 8 6 7 8 9 8 9 13 12 11 11 12 12 12 13 12 12 11 11
12 9 10 9 7 8 6 7 10 12 12 12 12 12 13 12 12 11 11 11 11 10
6 10 14 10 8 8 8 8 11 12 14 13 14 13 12 11 11 10 10 9 9 9
7 9 7 11 14 10 8 8 10 14 16 16 14 12 14 13 12 11 10 9 8 9
13 13 12 12 10 7 6 9 10 12 16 17 12 14 16 14 13 14 13 11 11 8
15 15 15 13 12 10 12 10 9 10 18 18 18 14 19 18 14 14 13 13 11 10
17 17 16 15 14 14 13 13 14 16 19 18 16 12 16 18 18 15 15 15 15 13
19 18 17 18 17 15 15 16 16 16 17 18 18 12 15 16 17 17 17 17 17 15
23 20 20 19 18 16 16 17 15 17 17 17 17 14 15 16 14 17 15 16 16 14
21 21 20 19 18 17 18 17 17 18 16 18 17 17 18 20 17 15 15 16 14 14
Wind_Direction
263 254 246 238 239 228 221 203 198 200 202 211 211 213 213 223 222 214 214 224 229 228
269 256 256 249 222 227 211 180 180 193 192 200 214 222 228 232 227 234 227 231 224 229
287 264 245 238 217 208 189 185 154 200 205 200 214 223 228 238 229 241 234 232 230 236
263 247 249 233 219 214 187 180 169 181 220 217 214 219 225 239 246 226 236 240 242 228
243 229 209 222 206 180 170 181 187 185 200 208 209 214 221 225 231 232 235 235 238 239
320 280 246 204 192 190 184 205 202 198 204 201 207 211 215 224 225 230 231 234 230 234
343 337 302 280 224 186 205 215 223 220 215 209 205 207 211 213 221 225 225 225 232 230
314 282 258 286 261 205 217 225 240 251 228 227 216 206 207 209 206 208 220 210 219 213
286 281 273 256 266 293 283 263 210 232 256 236 221 208 192 206 205 205 207 213 214 224
281 276 275 271 267 251 244 253 249 254 258 247 231 202 193 200 202 205 210 213 219 221
273 268 267 266 257 254 244 233 231 233 238 241 241 201 198 197 211 208 207 212 213 219
265 264 262 258 252 243 240 238 233 229 231 231 236 206 194 193 218 222 217 215 218 216
263 259 257 257 254 251 245 241 239 237 234 232 232 211 191 195 225 224 223 217 219 206
265 254 251 252 248 246 245 246 241 242 238 234 227 225 185 192 220 227 216 225 209 220